This is the latest recevied weather packets stored in our database for station/object IW2HNF-3. If no packets are shown the sender has not sent any weather packets the latest 10 day(s).
| Time | Temp. | Humidity | Pressure | Rain* | Wind** | Luminosity | Snow |
|---|---|---|---|---|---|---|---|
| 1777880439 | 17.78° C | 33% | 1016.9 hPa | 0 mm | - | - | - |
| 1777879862 | 17.78° C | 38% | 1016.8 hPa | 0 mm | - | - | - |
| 1777879239 | 17.22° C | 43% | 1016.8 hPa | 0 mm | - | - | - |
| 1777878662 | 17.22° C | 45% | 1016.8 hPa | 0 mm | - | - | - |
| 1777878038 | 16.67° C | 51% | 1016.7 hPa | 0 mm | - | - | - |
| 1777877462 | 16.11° C | 55% | 1016.7 hPa | 0 mm | - | - | - |
| 1777876838 | 16.11° C | 54% | 1016.6 hPa | 0 mm | - | - | - |
| 1777876264 | 16.11° C | 54% | 1016.5 hPa | 0 mm | - | - | - |
| 1777875638 | 15.56° C | 55% | 1016.4 hPa | 0 mm | - | - | - |
| 1777875062 | 15° C | 60% | 1016.2 hPa | 0 mm | - | - | - |
| 1777874870 | 14.44° C | 62% | 1016.4 hPa | 0 mm | - | - | - |
| 1777873862 | 14.44° C | 64% | 1016.4 hPa | 0 mm | - | - | - |
| 1777873239 | 13.89° C | 64% | 1016.2 hPa | 0 mm | - | - | - |
| 1777872664 | 13.89° C | 63% | 1016.1 hPa | 0 mm | - | - | - |
| 1777872038 | 13.33° C | 63% | 1016 hPa | 0 mm | - | - | - |
| 1777871462 | 13.33° C | 63% | 1016.1 hPa | 0 mm | - | - | - |
| 1777870839 | 13.33° C | 63% | 1015.9 hPa | 0 mm | - | - | - |
| 1777870263 | 13.33° C | 62% | 1015.7 hPa | 0 mm | - | - | - |
| 1777869639 | 13.33° C | 62% | 1015.6 hPa | 0 mm | - | - | - |
| 1777869062 | 13.33° C | 61% | 1015.5 hPa | 0 mm | - | - | - |
| 1777868439 | 13.33° C | 61% | 1015.5 hPa | 0 mm | - | - | - |
| 1777867864 | 13.33° C | 61% | 1015.6 hPa | 0 mm | - | - | - |
| 1777867672 | 13.33° C | 58% | 1015.5 hPa | 0 mm | - | - | - |
| 1777866039 | 13.33° C | 58% | 1015.5 hPa | 0 mm | - | - | - |
| 1777865462 | 13.33° C | 59% | 1015.5 hPa | 0 mm | - | - | - |
* Rain latest hour (hover to see other rain measurements)
** Current wind speed in m/s (hover to see current wind gust speed)